Regional Weather Roundup
Issued by NWS

Home | Current Version | Previous Version | Text Only | Print | Product List | Glossary Off
Versions: 1 2 3 4 5 6 7 8 9 10 11 12 13 14 15 16 17 18 19 20 21 22 23 24 25 26 27 28 29 30 31 32 33 34 35 36 37 38 39 40 41 42 43 44 45 46 47 48 49 50

000
ASUS43 KLSX 050707
RWRMO

WEATHER SUMMARY FOR MISSOURI
NATIONAL WEATHER SERVICE SPRINGFIELD MO
100 AM CST THU MAR 05 2015

NOTE: "FAIR" INDICATES FEW OR NO CLOUDS BELOW 12,000 FEET WITH NO
       SIGNIFICANT WEATHER AND/OR OBSTRUCTIONS TO VISIBILITY.
       CURRENT SKY AND/OR WEATHER CONDITIONS ARE NOT AVAILABLE FOR
       CHILLICOTHE AND FARMINGTON.

MOZ001>031-035>038-043-044-053-054-050800-
...NORTHERN AND WESTERN MISSOURI...

CITY           SKY/WX    TMP DP  RH WIND       PRES   REMARKS
KANSAS CTY INT PTCLDY    17   3  54 NE12      30.42S WCI   4
KANSAS C DTWN  PTCLDY    21   4  47 N10       30.44R WCI  10
LEE`S SUMMIT   MOCLDY    21   5  50 N10       30.42R WCI  10
ST JOSEPH      CLEAR     13   3  64 N9        30.48R WCI   1
CHILLICOTHE      N/A     17   4  56 N6        30.45R WCI   9

$$
MOZ066>068-077>081-088>096-101>105-050800-
...SOUTHWEST MISSOURI...

CITY           SKY/WX    TMP DP  RH WIND       PRES   REMARKS
SPRINGFIELD    MOCLDY    22  11  62 N7        30.34R WCI  13
JOPLIN         CLOUDY    22  11  62 N5        30.40S WCI  16

$$
MOZ032>034-039>042-045>050-055>058-069>072-050800-
...CENTRAL MISSOURI...

CITY           SKY/WX    TMP DP  RH WIND       PRES   REMARKS
COLUMBIA       CLEAR     19   6  57 NW6       30.37S WCI  11
JEFFERSON CITY CLEAR     19   9  65 NW3       30.40R
ROLLA          PTCLDY    19   6  57 N5        30.33R WCI  12
SEDALIA        PTCLDY    22  10  60 NW6       30.40S WCI  14
WHITEMAN AFB   CLEAR     20   9  62 N8        30.40R WCI  11
WARRENSBURG    MOCLDY    21  10  63 N6        30.42S WCI  14
OSAGE BEACH    PTCLDY    19  10  68 CALM      30.38R

$$
MOZ051-052-059>065-050800-
...EAST CENTRAL MISSOURI...

CITY           SKY/WX    TMP DP  RH WIND       PRES   REMARKS
ST LOUIS INTL  MOCLDY    20   5  52 N5        30.39R WCI  13
SPIRIT OF STL  PTCLDY    21   3  45 CALM      30.39R
ST CHARLES     PTCLDY    19   6  57 N7        30.40R WCI  10

$$
MOZ072>076-082>087-097>100-106>115-050800-
...SOUTH CENTRAL AND SOUTHEAST MISSOURI...

CITY           SKY/WX    TMP DP  RH WIND       PRES   REMARKS
CAPE GIRARDEAU CLOUDY    21  11  65 N14       30.34R WCI   8
FARMINGTON     MOCLDY    19   7  58 N6        30.36R WCI  11
POPLAR BLUFF   CLOUDY    22   8  55 N15       30.33S WCI   9
WEST PLAINS    CLOUDY    20   7  57 N9        30.32R WCI   9

$$



USA.gov is the U.S. government's official web portal to all federal, state and local government web resources and services.